Regional Weather Roundup
Issued by NWS

Home | Current Version | Previous Version | Text Only | Print | Product List | Glossary Off
Versions: 1 2 3 4 5 6 7 8 9 10 11 12 13 14 15 16 17 18 19 20 21 22 23 24 25 26 27 28 29 30 31 32 33 34 35 36 37 38 39 40 41 42 43 44 45 46 47 48 49 50

000
ASUS43 KMKX 290521
RWRWI

WISCONSIN REGIONAL WEATHER ROUNDUP
NATIONAL WEATHER SERVICE MILWAUKEE/SULLIVAN WI
1200 AM CDT TUE JUL 29 2014

NOTE: "FAIR" INDICATES FEW OR NO CLOUDS BELOW 12,000 FEET WITH NO
SIGNIFICANT WEATHER AND/OR OBSTRUCTIONS TO VISIBILITY.

WIZ001-002-006>008-014>016-023>028-290600-
NORTHWEST WISCONSIN

CITY           SKY/WX    TMP DP  RH WIND       PRES   REMARKS
SUPERIOR ARPT  PTCLDY    60  55  83 NW3       30.09S
ASHLAND        PTCLDY    61  56  83 N10       30.10R
HAYWARD        CLOUDY    57  54  89 CALM      30.10S
SIREN          PTCLDY    60  55  83 CALM      30.12S
RICE LAKE      NOT AVBL
LADYSMITH      MOCLDY    65  54  69 N7        30.12S
EAU CLAIRE     CLEAR     60  54  80 SW3       30.09F
MENOMONIE      CLEAR     61  56  85 W5        30.11S
NEW RICHMOND   CLEAR     57  54  88 W5        30.13S
OSCEOLA        CLEAR     57  56  99 CALM      30.15S
$$

WIZ003>005-009-010-017-018-290600-
NORTH CENTRAL WISCONSIN

CITY           SKY/WX    TMP DP  RH WIND       PRES   REMARKS
WOODRUFF       PTCLDY    57  52  85 CALM      30.06F
RHINELANDER    MOCLDY    57  54  89 W8        30.06F
EAGLE RIVER    PTCLDY    55  55 100 CALM      30.05F
LAND O LAKES   PTCLDY    57  55  95 CALM      30.06S
PHILLIPS       PTCLDY    56  55  97 CALM      30.09F
TOMAHAWK       CLOUDY    56  54  93 W3        30.07F
MEDFORD        LGT RAIN  58  56  91 NW5G16    30.10R
MERRILL        LGT RAIN  58  56  93 NW7       30.07S
$$

WIZ029-030-035-036-043>047-290600-
CENTRAL WISCONSIN

CITY           SKY/WX    TMP DP  RH WIND       PRES   REMARKS
WAUSAU         MOCLDY    61  56  83 NW7       30.05F
MOSINEE        CLOUDY    61  55  82 NW7       30.08R
MARSHFIELD     MOCLDY    60  54  80 NW7       30.08S
STEVENS POINT  CLOUDY    62  53  74 NW6       30.07S
WAUPACA        CLOUDY    66  55  68 W3        30.05S
WAUTOMA        CLOUDY    63  55  75 CALM      30.06F
WISC RAPIDS    MOCLDY    60  55  83 W5        30.08F
CAMP DOUGLAS   CLOUDY    56  56 100 W6        30.09S
$$

WIZ011>013-019>022-031-037>040-048>050-290600-
NORTHEAST WISCONSIN

CITY           SKY/WX    TMP DP  RH WIND       PRES   REMARKS
ANTIGO         PTCLDY    57  55  92 NW7       30.06S
STURGEON BAY   CLOUDY    63  55  77 W5        30.00F
GREEN BAY      MOCLDY    61  56  83 W6        30.02F
MANITOWOC      PTCLDY    57  53  86 W5        30.02F
APPLETON       CLOUDY    61  52  72 W7        30.04S
CLINTONVILLE   PTCLDY    63  54  72 W5        30.03F
OSHKOSH        PTCLDY    62  54  74 W5        30.04S
$$

WIZ032>034-041-042-053>061-290600-
SOUTHWEST WISCONSIN

CITY           SKY/WX    TMP DP  RH WIND       PRES   REMARKS
LA CROSSE      CLEAR     63  56  78 SE3       30.10S
SPARTA         PTCLDY    53  51  94 CALM      30.11S
VIROQUA        FAIR      57  53  86 CALM      30.12S
BOSCOBEL       CLEAR     55  53  93 CALM      30.11S
PRAIRIE DU CHI CLEAR     56  53  87 CALM      30.11F
PLATTEVILLE    FAIR      58  53  83 NW3       30.12S
$$

WIZ056-057-062-063-064-067-068-290600-
SOUTH CENTRAL WISCONSIN

CITY           SKY/WX    TMP DP  RH WIND       PRES   REMARKS
BARABOO/DELLS  CLOUDY    62  51  69 W3        30.08F
LONE ROCK      CLEAR     60  54  80 W6        30.10S
WATERTOWN      CLEAR     61  55  79 W5        30.06S
MADISON        MOCLDY    64  52  64 NW3       30.07F
MIDDLETON      CLOUDY    63  52  69 W6        30.08F
MONROE         CLEAR     61  52  72 NW8       30.09S
JANESVILLE     MOCLDY    61  52  72 NW6       30.07S
$$

WIZ051-052-058>065-066-070>072-290600-
SOUTHEAST WISCONSIN

CITY           SKY/WX    TMP DP  RH WIND       PRES   REMARKS
MILWAUKEE      MOCLDY    59  50  72 S5        30.05F
WAUKESHA       CLEAR     61  52  72 CALM      30.06S
MILWAUKEE/TIMM CLEAR     59  50  72 CALM      30.05F
RACINE         MOCLDY    60  52  74 S3        30.07S
BURLINGTON     CLOUDY    59  54  84 NW6       30.05S
KENOSHA        CLOUDY    60  53  77 CALM      30.06S
FOND DU LAC    PTCLDY    63  53  70 W6        30.04F
SHEBOYGAN      CLOUDY    55  53  93 SW5       30.03F
WEST BEND      PTCLDY    55  52  88 CALM      30.04F
JUNEAU         CLOUDY    61  51  69 CALM      30.07S
$$

LSZ147-162-290600-
LAKE SUPERIOR

STATION/POSITION TIME  TEMP    WIND        PRES    WAVE
                       AIR SEA DIR/SP/G            HT/PER
                 (UTC) (F)     (DEG/KT/KT) (MB)    (FT/S)
W MID LAKE BUOY  0450   50 43  300/  8/  8 1017.4F   1/ 3
PORT WING        0420   65     330/ 10/ 18 1019.3R
SAXON HARBOR     0400          190/  2/  5 1017.9F
$$

LMZ867-665-643>646-290600-
LAKE MICHIGAN

STATION/POSITION TIME  TEMP    WIND        PRES    WAVE
                       AIR SEA DIR/SP/G            HT/PER
                 (UTC) (F)     (DEG/KT/KT) (MB)    (FT/S)
N MID LAKE BUOY  0450   57 54  250/  8/  8 1014.3F   1/ 3
NORTHPORT PIER   0400   64     260/  3/  6 1015.6F
SISTER BAY       0340   65     260/  7/  8   N/A
ALGOMA LAKESHORE 0406             CALM       N/A
KEWAUNEE LAKESHO 0500   58     310/  5/  6 1016.6F
SHEBOYGAN LAKESH 0500   59     220/  6/  6 1017.0F
PORT WASHINGTON  0400   60     260/  4/  6 1017.9
ATWATER BUOY     0500   62     180/  8     1018.1F
MILWAUKEE LAKESH 0500   60     190/  6/  6   N/A
S MID LAKE BUOY  0450   59 60  250/  4/  6 1017.7F   2/ 6
KENOSHA   LAKESH 0500   61     170/  5/  6 1017.6S
$$

TC  - TEMPERATURE IN CELSIUS
VSB - VISIBILITY IN STATUTE MILES
WCI - WIND CHILL INDEX
HX  - HEAT INDEX



USA.gov is the U.S. government's official web portal to all federal, state and local government web resources and services.